Regional Weather Roundup
Issued by NWS

Home | Current Version | Previous Version | Graphics & Text | Print | Product List | Glossary On
Versions: 1 2 3 4 5 6 7 8 9 10 11 12 13 14 15 16 17 18 19 20 21 22 23 24 25 26 27 28 29 30 31 32 33 34 35 36 37 38 39 40 41 42 43 44 45 46 47 48 49 50
000
ASUS43 KFSD 240910
RWRSD

WEATHER ROUNDUP FOR SOUTH DAKOTA
NATIONAL WEATHER SERVICE SIOUX FALLS SD
300 AM CST FRI FEB 24 2017

NOTE: "FAIR" INDICATES FEW OR NO CLOUDS BELOW 12,000 FEET WITH NO
SIGNIFICANT WEATHER AND/OR OBSTRUCTIONS TO VISIBILITY.


SDZ001>005-009-010-012>017-241000-
NORTHWEST AND NORTH CENTRAL SOUTH DAKOTA

CITY           SKY/WX    TMP DP  RH WIND       PRES   REMARKS
BUFFALO          N/A     16  12  84 NE12      29.98S WCI   3
FAITH            N/A     18  16  92 N18       30.03S WCI   2
MOBRIDGE       PTCLDY    22  14  71 N15       30.06R WCI   9
$$

SDZ012>016-024>037-041>051-057-063-072>074-241000-
SOUTHWEST AND SOUTH CENTRAL SOUTH DAKOTA

CITY           SKY/WX    TMP DP  RH WIND       PRES   REMARKS
RAPID CTY ARPT LGT SNOW  24  21  88 N13       29.99S FOG     WCI  12
PIERRE         CLOUDY    23  15  71 NE17G29   30.02R WCI   9
CUSTER         LGT SNOW  16  12  84 NE5       29.85S FOG     WCI   9
ELLSWORTH AFB  LGT SNOW  24  23  99 NE13      29.99  FOG     WCI  12
PHILIP         CLOUDY    25  20  81 N16       30.02R WCI  12
PINE RIDGE     LGT SNOW  23  20  88 VRB5      29.95S FOG     WCI  17
SPEARFISH      FLURRIES  21  19  93 E5        29.98S WCI  15
WINNER         CLOUDY    24  20  84 N24       29.95R WCI   8
$$

SDZ004>011-016>023-039-040-241000-
NORTHEAST SOUTH DAKOTA

CITY           SKY/WX    TMP DP  RH WIND       PRES   REMARKS
ABERDEEN       CLOUDY    20  12  71 N23G31    30.05R WCI   3
WATERTOWN      CLOUDY    19  13  77 N22G33    29.92R WCI   2
BROOKINGS      CLOUDY    22  18  85 N23G29    29.87R WCI   6
SISSETON         N/A     21  14  74 N26       30.01S WCI   4
$$

SDZ017-020-022-023-036>040-048>070-241000-
SOUTHEAST SOUTH DAKOTA

CITY           SKY/WX    TMP DP  RH WIND       PRES   REMARKS
SIOUX FALLS    CLOUDY    26  23  88 N22G32    29.83S WCI  12
HURON          CLOUDY    22  15  75 N16G31    29.97F WCI   8
CHAMBERLAIN    CLOUDY    25  20  82 N16G24    29.97S WCI  12
MITCHELL       CLOUDY    24  19  81 N23       29.94S WCI   9
YANKTON        CLOUDY   N/A N/A N/A N20G31    29.83S
$$

ABBREVIATIONS USED IN REMARKS
   TC - TEMPERATURE IN CELSIUS
  WCI - WIND CHILL INDEX
   HX - HEAT INDEX
  VSB - VISIBILITY




USA.gov is the U.S. government's official web portal to all federal, state and local government web resources and services.